This is the latest recevied weather packets stored in our database for station/object YM2KA-13. If no packets are shown the sender has not sent any weather packets the latest 10 day(s).
| Time | Temp. | Humidity | Pressure | Rain* | Wind** | Luminosity | Snow |
|---|---|---|---|---|---|---|---|
| 1777469075 | 19.44° C | 26% | 1010.4 hPa | 0 mm | - | - | - |
| 1777468993 | 19.44° C | 26% | 1010.4 hPa | 0 mm | - | - | - |
| 1777468476 | 19.44° C | 27% | 1010.3 hPa | 0 mm | - | - | - |
| 1777468090 | 19.44° C | 28% | 1010.4 hPa | 0 mm | - | - | - |
| 1777467866 | 19.44° C | 28% | 1010.4 hPa | 0 mm | - | - | - |
| 1777467268 | 18.89° C | 30% | 1010.5 hPa | 0 mm | - | - | - |
| 1777467187 | 18.89° C | 31% | 1010.5 hPa | 0 mm | - | - | - |
| 1777466669 | 18.89° C | 31% | 1010.5 hPa | 0 mm | - | - | - |
| 1777466293 | 18.89° C | 30% | 1010.7 hPa | 0 mm | - | - | - |
| 1777466069 | 18.89° C | 30% | 1010.6 hPa | 0 mm | - | - | - |
| 1777465471 | 18.89° C | 31% | 1010.8 hPa | 0 mm | - | - | - |
| 1777465390 | 18.89° C | 30% | 1010.8 hPa | 0 mm | - | - | - |
| 1777464872 | 18.89° C | 29% | 1010.8 hPa | 0 mm | - | - | - |
| 1777464486 | 19.44° C | 29% | 1011 hPa | 0 mm | - | - | - |
| 1777464272 | 19.44° C | 29% | 1011 hPa | 0 mm | - | - | - |
| 1777463673 | 20° C | 27% | 1011.1 hPa | 0 mm | - | - | - |
| 1777463592 | 19.44° C | 26% | 1011.1 hPa | 0 mm | - | - | - |
| 1777463074 | 18.89° C | 24% | 1011.2 hPa | 0 mm | - | - | - |
| 1777462688 | 19.44° C | 27% | 1011.1 hPa | 0 mm | - | - | - |
| 1777462474 | 19.44° C | 29% | 1011.1 hPa | 0 mm | - | - | - |
| 1777461876 | 18.33° C | 26% | 1011.3 hPa | 0 mm | - | - | - |
| 1777461795 | 18.89° C | 27% | 1011.2 hPa | 0 mm | - | - | - |
| 1777461267 | 18.89° C | 26% | 1011.3 hPa | 0 mm | - | - | - |
| 1777460891 | 18.89° C | 30% | 1011.3 hPa | 0 mm | - | - | - |
| 1777460667 | 18.33° C | 30% | 1011.3 hPa | 0 mm | - | - | - |
* Rain latest hour (hover to see other rain measurements)
** Current wind speed in m/s (hover to see current wind gust speed)